STARLINK-32921, 62920

Orbit data source: Space-Track

STARLINK-32921, 62920 is a payload satellite owned by SpaceX/Seattle (US) in LEO that was launched on Sat, 08 Feb 2025 UTC via an FALCON 9 launch vehicle from the Air Force Eastern Test Range (AFETR). Payload-class satellites include a variety of spacecraft equipped with specific instruments for various scientific and technological missions. These include communications satellites like Starlink; space stations such as the ISS; scientific satellites like the Hubble; Earth observation satellites from companies like Planet Labs, Umbra, and HawkEye 360; GPS; miniature CubeSats for education and research; and military/defense satellites.

Loading next visibility...
Identifier
62920, 2025-027P
Orbit
LEO
Last TLE update
7 hours ago
Origin
Manufacturer
SpaceX/Seattle
Mission
Operational Commercial Communications
Bus & Motor
STARLINK V2M, Unknown motor
Mass
730 kg wet, ~700 kg dry
Launch date (UTC)
2025-02-08 (3 months ago)
Launch vehicle
FALCON 9
Launch site
Air Force Eastern Test Range (AFETR)
Object type
Payload
Rocket body
Debris
Shape & HBR
Box + 2 Pan, 29 m
Radar Cross Section
33.884 m², Large (>1 m²)

Expand to show TLE details & history

TLE from 7 hours ago
0 STARLINK-32921
1 62920U 25027P   25128.98755442  .00000555  00000-0  29711-4 0  9996
2 62920  43.0015  49.5313 0001536 269.9618  90.1058 15.27578949 14943
Epoch: 2025-05-08T23:42Z
Definitive object data (Epoch: 2025-05-08T23:42:04.701Z)
Latitude
-0.00001°
Longitude
-173.03846°
Altitude
482.83 km
Speed
7.626 km/s
True Right ascension
03h 18m 07s
True Declination
0° 00' 00"
Sunlit
Object was in daylight at TLE epoch
Visualization TLE readout
Latitude
-41.54782°
Longitude
76.14034°
Altitude
494.723 km
Speed
7.618 km/s
Apparent Right ascension
23h 26m 29s
Apparent Declination
-56° 08' 50"
Sunlit
Object is in full shadow
Visualization observer readout
Local Sidereal Time
15:14:31
Azimuth
133.431° SE
Elevation
-49.954°
Doppler factor
1
Orbital elements
Apogee altitude
486.051 km
Perigee altitude
483.943 km
Semi-major axis
6,863.134 km
Eccentricity
0.0001536
Inclination
43.0015°
RAAN
49.5313°
Arg. of periapsis
269.9618°
True anomaly
90.1234°
Mean anomaly
90.1058°
Eccentric anomaly
90.1146°
Mean motion
3.81733 °/min
BSTAR
0.000029711
Orbital period
94.31 mins
Loading maneuver chart data...
Loading SW <> Apogee altitude chart data...
Loading historical data...
Loading historical data...
Loading historical data...
Loading historical data...
Loading historical data...
Loading historical data...
Loading historical data...

STARLINK-32921 Visibility forecast

Observer location: undefined°, undefined°

Span
Click to sort rows by Start time (UTC) header in descending order
Start Az.
Max El. time (UTC)
Max El. Az.
Max El.
End time (UTC)
End Az.
6 mins2025-05-09 21:52:35.025Z217.601° SW2025-05-09 21:55:35.025Z152.172° SSE32.113°2025-05-09 21:58:35.025Z84.832° E
5 mins2025-05-09 23:32:35.025Z271.798° WNW2025-05-09 23:34:35.025Z0.75° NNE42.283°2025-05-09 23:37:35.025Z69.326° E
5 mins2025-05-10 01:11:35.025Z295.803° NW2025-05-10 01:13:35.025Z358.543° N38.921°2025-05-10 01:16:35.025Z81.1° E
5 mins2025-05-10 02:50:35.025Z280.348° WNW2025-05-10 02:52:35.025Z219.76° SW42.385°2025-05-10 02:55:35.025Z122.698° SE
|